Location: Usti nad Labem
(50.6670°N, 14.0330°E)
Time: 23:44:27
(UTC+01:00)

ISS - Pass Details

Date: 03 October 2020
Orbit: 417 x 420 km, 51.6° (Epoch: 30 October)

Event Time Altitude Azimuth Distance (km) Brightness Sun altitude
Rises 21:07:48 0° 280° (W) 2,370 1.3 -24.2°
Reaches altitude 10° 21:10:41 10° 254° (WSW) 1,502 -0.4 -24.6°
Enters shadow 21:12:03 13° 230° (SW) 1,310 -1.0 -24.8°
